Location: Newark
(47.8167°N, 6.1833°E)
Time: 11:16:17
(UTC+00:00)

Envisat - Visible Passes

Search period start: 24 September 2020 00:00
Search period end: 04 October 2020 00:00
Orbit: 764 x 766 km, 98.1° (Epoch: 23 September)

Date Brightness Start Highest point End Pass type
(mag) Time Alt. Az. Time Alt. Az. Time Alt. Az.
24 Sep 6.6 04:10:03 10° ENE 04:11:34 11° E 04:13:05 10° ESE visible
25 Sep 6.2 18:08:49 10° SW 18:12:04 17° W 18:15:18 10° NW visible
26 Sep 6.0 04:33:45 10° NE 04:37:22 19° E 04:40:58 10° SE visible
28 Sep 6.0 17:56:47 10° SW 18:00:34 21° W 18:04:22 10° NW visible
29 Sep 6.2 04:22:53 10° NE 04:25:52 15° E 04:28:51 10° SE visible
30 Sep 6.5 18:24:17 10° WSW 18:26:20 12° W 18:28:25 10° WNW visible
01 Oct 5.6 04:47:23 10° NE 04:51:36 26° E 04:55:47 10° SSE visible
01 Oct 5.7 17:44:54 10° SSW 17:49:05 26° W 17:53:18 10° NW visible
02 Oct 6.4 04:12:18 10° ENE 04:14:21 12° E 04:16:23 10° ESE visible
03 Oct 6.3 18:11:50 10° SW 18:14:50 16° W 18:17:49 10° NW visible
